Zurück zum Katalog

STARLINK-36543

AktivKommunikationVLEO
NORAD 67515·PAYLOAD·🇺🇸 United States

Gestartet Jan 18, 2026 von Cape Canaveral Space Force Station

Loading…

Nächste Überflüge (nächste 24 Stunden)

TLE

AktuellSource: CelesTrak SupGP

Epoche: Sep 14, 2026, 21:15 UTC

1 67515C 26012Y   26257.88590278 -.00021132  00000+0 -76541-3 0  2577
2 67515  43.0022 325.9239 0001557 267.9426 211.8236 15.27587793    12

Verfolge STARLINK-36543 in Echtzeit mit AllMySat

Download on the App Store